Portada
METAR-TAF:

METAR-TAF

Aeroports :

Dharamsala, Índia

latitud: 32-09-54N, longitud: 76-15-48E, altitud: 770 m

METAR: manca

Hora: 19:46 (14:16 UTC)

Pronòstic

L'informe es va fer fa 9 hores i 16 minuts, a les 05:00 UTC
Pronòstic vàlid del 17 a les 06 UTC al 17 a les 15 UTC
Vent 2 kt amb direcció variable
Visibilitat: 5000 m
calitja

TAF: VIGG 170500Z 1706/1715 VRB02KT 5000 HZ NSC

Observacions i pronòstics meteorològics de més de 4000 aeroports (METAR i TAF).

Les estacions disponibles són els punts grocs i vermells al mapa.

Posi el ratolí al punt desitjat per veure el nom de l'estació.

Feu clic per veure les observacions i els pronòstics meteorològics.

Per canviar el mapa: feu clic els botons verds amb una creu de color negre per apropar; al botó verd amb un guió per allunyar la imatge; o en les fletxes verdes per a mapes adjacents.


METAR-TAF: